ONEWEB-0631 (55171 NORAD) Tracking and Keplerian Element Data

This shows tracking and keplerian element data for the satellite.

Feedback or suggestion? Click here.




ElementValue
Catalog55171
NameONEWEB-0631
Epoch Orbit130
Epoch Day13.91667824
Epoch Year2023
RAAN284.1397
Inclination86.5126
Eccentricity0.0012804
Argument of Perigee209.6635
Mean Anonmoly65.5796
Mean Motion14.91698541
Decay Rate-0.00048735
L11 55171U 23004AH 23013.91667824 -.00048735 00000+0 -48817-2 0 9998
L22 55171 86.5126 284.1397 0012804 209.6635 65.5796 14.91698541 1309



Live tracking and technical data element details for ONEWEB-0631 (NORAD 55171). ONEWEB-0631 can be tracked NOW for your location showing map with azimuth and elevation plus other details from your city location.







IsCatalogInMostPopularTable: catalog: 55171, numindb: 4
Update: records affected: 1



GetName: 55171 ONEWEB-0631

Hit Count: updated at: Tue, 07 Feb 2023 16:02:55 GMT